User: anonymous   Login
Location: Kitchener
(43.2612°N, 80.5078°W)
Time: 06:26:20
(UTC+02:00)
Language:

Iridium 57 - Orbit

View from above orbital plane
View from above orbital plane
View from above satellite
View from above satellite

Ground track
Ground track

The orbit data is extracted from the following two-line orbital elements,

1 25273U 98019B   15149.29143336  .00000282  00000-0  93693-4 0  9993
2 25273 086.3988 240.7206 0002260 094.3139 265.8315 14.34221627898583
Epoch (UTC): 29 May 2015 06:59:39
Eccentricity: 0.0002260
inclination: 86.3988°
perigee height: 776 km
apogee height: 779 km
right ascension of ascending node: 240.7206°
argument of perigee: 94.3139°
revolutions per day: 14.34221627
mean anomaly at epoch: 265.8315°
orbit number at epoch: 89858

The dashed part of the orbit path shows where the satellite is in the earth's shadow,  

DLR